COSMOS 1275 DEB, 42099

Orbit data source: Space-Track

COSMOS 1275 DEB, 42099 is space debris in LEO originally from a launch on Thu, 04 Jun 1981 UTC launched from the Plesetsk Missile And Space Complex (PKMTR). Debris objects in space refer to the collection of defunct objects orbiting the Earth. Examples of debris include non-operational satellites, rocket bodies, and fragments generated from explosions, collisions, or faulty payload assembly.

Loading next visibility...
Identifier
42099, 1981-053PK
Orbit
LEO
Country
Flag of CISCIS
Related business
Manufacturer
Unknown
Mission
Spacecraft
Bus & Motor
Unknown
Mass
Unknown
Launch date (UTC)
1981-06-04 (45 years ago)
Launch vehicle
Unknown
Launch site
Plesetsk Missile And Space Complex (PKMTR)
Object type
Payload
Rocket body
Debris
Shape & HBR
Unknown shape, 0.1 m
Radar Cross Section
Small (<0.1 m²)

Expand to show TLE details & history
Last TLE update: 6 days ago

TLE from 6 days ago
0 COSMOS 1275 DEB
1 42099U 81053PK  26067.40194044  .00007296  00000-0  26553-2 0  9995
2 42099  82.8497 114.2905 0025363 329.5376  30.4337 14.32903002522047
Epoch: 2026-03-08T09:38Z
TLE epoch observation values (Epoch: 2026-03-08T09:38:47.654Z)
Latitude
Longitude
163.48219°
Altitude
769.372 km
Speed
7.478 km/s
True Right ascension
07h 37m 09s
True Declination
0° 00' 00"
Sunlit
Object was in full shadow at epoch
Visualization orbit readout
Latitude
Unknown
Longitude
Unknown
Altitude
Unknown
Speed
Unknown
Apparent Right ascension
Unknown
Apparent Declination
Unknown
Sunlit
N/A
Visualization observer readout
Local Sidereal Time
06:13:19
Azimuth
Unknown
Elevation
Unknown
Doppler factor
Unknown
Orbital elements
Apogee altitude
797.269 km
Perigee altitude
760.963 km
Semi-major axis
7,157.253 km
Eccentricity
0.00254
Inclination
82.8497°
RAAN
114.2905°
Arg. of periapsis
329.5376°
True anomaly
30.58132°
Mean anomaly
30.4337°
Eccentric anomaly
30.50747°
Mean motion
3.58446 °/min
Orbital period
100.43 mins
BSTAR
0.0026553
Loading maneuver chart data...
Computing Atmospheric mass density...
Loading historical data...
Loading historical data...
Loading historical data...
Loading historical data...
Loading historical data...
Loading historical data...
Loading historical data...

Documentation

Showing up to 5 results
|